Time,TemperatureF,DewpointF,PressureIn,WindDirection,WindDirectionDegrees,WindSpeedMPH,WindSpeedGustMPH,Humidity,HourlyPrecipIn,Conditions,Clouds,dailyrainin,SoftwareType,DateUTC
2013-11-25 00:02:00,37.4,35.0,30.28,NE,37,0.0,0.0,92,0.00,,,0.00,weatherlink.com 1.10,2013-11-25 08:02:00,
2013-11-25 00:17:00,37.3,36.0,30.28,NE,44,0.0,0.0,93,0.00,,,0.00,weatherlink.com 1.10,2013-11-25 08:17:00,
2013-11-25 00:32:00,37.2,35.0,30.29,NE,47,0.0,0.0,93,0.00,,,0.00,weatherlink.com 1.10,2013-11-25 08:32:00,
2013-11-25 00:47:00,37.2,35.0,30.28,NE,47,0.0,0.0,93,0.00,,,0.00,weatherlink.com 1.10,2013-11-25 08:47:00,
2013-11-25 01:02:00,36.8,35.0,30.29,NE,47,0.0,0.0,93,0.00,,,0.00,weatherlink.com 1.10,2013-11-25 09:02:00,
2013-11-25 01:17:00,36.9,35.0,30.29,NE,50,0.0,0.0,93,0.00,,,0.00,weatherlink.com 1.10,2013-11-25 09:17:00,
2013-11-25 01:32:00,38.2,37.0,30.29,ESE,107,0.0,0.0,94,0.00,,,0.00,weatherlink.com 1.10,2013-11-25 09:32:00,
2013-11-25 01:47:00,39.1,38.0,30.29,East,98,0.0,2.0,94,0.00,,,0.00,weatherlink.com 1.10,2013-11-25 09:47:00,
2013-11-25 02:02:00,38.3,36.0,30.29,SSE,164,0.0,2.0,92,0.00,,,0.00,weatherlink.com 1.10,2013-11-25 10:02:00,
2013-11-25 02:17:00,37.8,36.0,30.29,SE,144,0.0,1.0,93,0.00,,,0.00,weatherlink.com 1.10,2013-11-25 10:17:00,
2013-11-25 02:33:00,37.4,36.0,30.29,East,86,0.0,0.0,93,0.00,,,0.00,weatherlink.com 1.10,2013-11-25 10:33:00,
2013-11-25 02:47:00,36.7,35.0,30.29,ENE,69,0.0,1.0,93,0.00,,,0.00,weatherlink.com 1.10,2013-11-25 10:47:00,
2013-11-25 03:02:00,36.4,35.0,30.29,ENE,64,0.0,0.0,93,0.00,,,0.00,weatherlink.com 1.10,2013-11-25 11:02:00,
2013-11-25 03:18:00,37.3,36.0,30.29,ENE,67,0.0,0.0,94,0.00,,,0.00,weatherlink.com 1.10,2013-11-25 11:18:00,
2013-11-25 03:32:00,37.6,36.0,30.29,East,93,0.0,0.0,94,0.00,,,0.00,weatherlink.com 1.10,2013-11-25 11:32:00,
2013-11-25 03:47:00,37.0,35.0,30.29,NE,39,0.0,0.0,93,0.00,,,0.00,weatherlink.com 1.10,2013-11-25 11:47:00,
2013-11-25 04:02:00,36.5,35.0,30.29,NE,36,0.0,0.0,93,0.00,,,0.00,weatherlink.com 1.10,2013-11-25 12:02:00,
2013-11-25 04:17:00,37.3,36.0,30.30,East,98,0.0,0.0,94,0.00,,,0.00,weatherlink.com 1.10,2013-11-25 12:17:00,
2013-11-25 04:32:00,36.9,35.0,30.30,East,99,0.0,0.0,93,0.00,,,0.00,weatherlink.com 1.10,2013-11-25 12:32:00,
2013-11-25 04:47:00,36.4,35.0,30.30,SE,139,0.0,0.0,93,0.00,,,0.00,weatherlink.com 1.10,2013-11-25 12:47:00,
2013-11-25 05:02:00,36.1,35.0,30.30,East,86,0.0,0.0,94,0.00,,,0.00,weatherlink.com 1.10,2013-11-25 13:02:00,
2013-11-25 05:17:00,37.2,36.0,30.30,ESE,104,0.0,0.0,94,0.00,,,0.00,weatherlink.com 1.10,2013-11-25 13:17:00,
2013-11-25 05:32:00,36.7,35.0,30.30,East,79,0.0,2.0,94,0.00,,,0.00,weatherlink.com 1.10,2013-11-25 13:32:00,
2013-11-25 05:47:00,37.2,36.0,30.31,ESE,106,0.0,1.0,94,0.00,,,0.00,weatherlink.com 1.10,2013-11-25 13:47:00,
2013-11-25 06:02:00,35.8,34.0,30.31,NE,54,0.0,0.0,93,0.00,,,0.00,weatherlink.com 1.10,2013-11-25 14:02:00,
2013-11-25 06:17:00,36.5,35.0,30.32,East,93,0.0,1.0,94,0.00,,,0.00,weatherlink.com 1.10,2013-11-25 14:17:00,
2013-11-25 06:32:00,37.6,36.0,30.32,ESE,103,0.0,3.0,94,0.00,,,0.00,weatherlink.com 1.10,2013-11-25 14:32:00,
2013-11-25 06:47:00,36.9,35.0,30.32,ESE,103,0.0,0.0,94,0.00,,,0.00,weatherlink.com 1.10,2013-11-25 14:47:00,
2013-11-25 07:02:00,35.8,34.0,30.33,NE,55,1.0,1.0,94,0.00,,,0.00,weatherlink.com 1.10,2013-11-25 15:02:00,
2013-11-25 07:17:00,37.0,36.0,30.33,East,95,0.0,1.0,95,0.00,,,0.00,weatherlink.com 1.10,2013-11-25 15:17:00,
2013-11-25 07:33:00,36.4,35.0,30.33,ENE,60,0.0,1.0,94,0.00,,,0.00,weatherlink.com 1.10,2013-11-25 15:33:00,
2013-11-25 07:48:00,37.0,36.0,30.34,East,96,1.0,1.0,95,0.00,,,0.00,weatherlink.com 1.10,2013-11-25 15:48:00,
2013-11-25 08:03:00,38.6,37.0,30.34,ESE,102,0.0,2.0,95,0.00,,,0.00,weatherlink.com 1.10,2013-11-25 16:03:00,
2013-11-25 08:18:00,39.8,39.0,30.35,East,98,0.0,2.0,95,0.00,,,0.00,weatherlink.com 1.10,2013-11-25 16:18:00,
2013-11-25 08:33:00,41.0,40.0,30.35,SE,134,0.0,1.0,95,0.00,,,0.00,weatherlink.com 1.10,2013-11-25 16:33:00,
2013-11-25 08:48:00,41.9,41.0,30.35,SE,134,0.0,3.0,95,0.00,,,0.00,weatherlink.com 1.10,2013-11-25 16:48:00,
2013-11-25 09:03:00,43.3,42.0,30.35,SE,124,0.0,3.0,95,0.00,,,0.00,weatherlink.com 1.10,2013-11-25 17:03:00,
2013-11-25 09:18:00,44.1,43.0,30.35,South,172,0.0,1.0,95,0.00,,,0.00,weatherlink.com 1.10,2013-11-25 17:18:00,
2013-11-25 09:25:00,45.2,43.9,30.35,SSE,155,1.0,4.0,95,0.00,,,0.00,Wunderground v.1.15,2013-11-25 17:25:00,
2013-11-25 09:30:00,46.1,44.7,30.35,SE,145,3.0,3.0,95,0.00,,,0.00,Wunderground v.1.15,2013-11-25 17:30:00,
2013-11-25 09:40:00,47.5,45.6,30.35,SE,139,3.0,3.0,93,0.00,,,0.00,Wunderground v.1.15,2013-11-25 17:40:00,
2013-11-25 09:45:00,48.2,46.0,30.35,SE,145,3.0,3.0,92,0.00,,,0.00,Wunderground v.1.15,2013-11-25 17:45:00,
2013-11-25 09:54:00,49.4,46.6,30.35,South,177,3.0,4.0,90,0.00,,,0.00,Wunderground v.1.15,2013-11-25 17:54:00,
2013-11-25 10:00:00,49.7,46.3,30.35,SE,146,3.0,3.0,88,0.00,,,0.00,Wunderground v.1.15,2013-11-25 18:00:00,
2013-11-25 10:05:00,50.2,46.5,30.35,SSE,158,3.0,4.0,87,0.00,,,0.00,Wunderground v.1.15,2013-11-25 18:05:00,
2013-11-25 10:10:00,50.7,47.0,30.35,SSE,159,3.0,3.0,87,0.00,,,0.00,Wunderground v.1.15,2013-11-25 18:10:00,
2013-11-25 10:18:00,51.7,47.0,30.34,SSE,155,2.0,4.0,84,0.00,,,0.00,weatherlink.com 1.10,2013-11-25 18:18:00,
2013-11-25 10:25:00,52.5,47.8,30.34,SSE,154,2.0,3.0,84,0.00,,,0.00,Wunderground v.1.15,2013-11-25 18:25:00,
2013-11-25 10:33:00,53.8,48.0,30.34,South,188,4.0,4.0,81,0.00,,,0.00,weatherlink.com 1.10,2013-11-25 18:33:00,
2013-11-25 10:40:00,54.9,48.5,30.34,SSW,198,4.0,4.0,79,0.00,,,0.00,Wunderground v.1.15,2013-11-25 18:40:00,
2013-11-25 10:49:00,55.1,48.0,30.34,SSW,195,3.0,6.0,78,0.01,,,0.01,weatherlink.com 1.10,2013-11-25 18:49:00,
2013-11-25 10:54:00,55.5,48.8,30.34,South,191,4.0,4.0,78,0.00,,,0.01,Wunderground v.1.15,2013-11-25 18:54:00,
2013-11-25 11:00:00,56.1,49.0,30.33,SSW,204,4.0,4.0,77,0.00,,,0.01,Wunderground v.1.15,2013-11-25 19:00:00,
2013-11-25 11:10:00,56.8,49.7,30.33,South,181,3.0,3.0,77,0.00,,,0.01,Wunderground v.1.15,2013-11-25 19:10:00,
2013-11-25 11:15:00,57.0,49.9,30.32,SSW,208,3.0,3.0,77,0.00,,,0.01,Wunderground v.1.15,2013-11-25 19:15:00,
2013-11-25 11:20:00,57.7,50.0,30.32,South,186,2.0,6.0,76,0.01,,,0.01,weatherlink.com 1.10,2013-11-25 19:20:00,
2013-11-25 11:30:00,58.5,50.2,30.32,SSW,193,3.0,3.0,74,0.00,,,0.01,Wunderground v.1.15,2013-11-25 19:30:00,
2013-11-25 11:35:00,59.1,50.0,30.31,East,92,1.0,9.0,71,0.01,,,0.01,weatherlink.com 1.10,2013-11-25 19:35:00,
2013-11-25 11:44:00,60.7,49.3,30.31,WNW,288,1.0,3.0,66,0.00,,,0.01,Wunderground v.1.15,2013-11-25 19:44:00,
2013-11-25 11:50:00,61.4,49.5,30.31,South,188,2.0,3.0,65,0.00,,,0.01,Wunderground v.1.15,2013-11-25 19:50:00,
2013-11-25 11:59:00,61.6,48.9,30.30,SE,143,3.0,4.0,63,0.00,,,0.01,Wunderground v.1.15,2013-11-25 19:59:00,
2013-11-25 12:04:00,61.1,48.0,30.30,SSE,152,4.0,6.0,62,0.00,,,0.01,Wunderground v.1.15,2013-11-25 20:04:00,
2013-11-25 12:10:00,61.4,49.1,30.30,NW,311,4.0,4.0,64,0.00,,,0.01,Wunderground v.1.15,2013-11-25 20:10:00,
2013-11-25 12:15:00,61.6,48.9,30.30,SE,128,3.0,4.0,63,0.00,,,0.01,Wunderground v.1.15,2013-11-25 20:15:00,
2013-11-25 12:20:00,61.6,48.0,30.30,SE,141,3.0,5.0,61,0.00,,,0.01,Wunderground v.1.15,2013-11-25 20:20:00,
2013-11-25 12:30:00,61.8,48.2,30.29,SE,144,3.0,3.0,61,0.00,,,0.01,Wunderground v.1.15,2013-11-25 20:30:00,
2013-11-25 12:35:00,61.8,49.1,30.29,SSE,160,3.0,4.0,63,0.00,,,0.01,Wunderground v.1.15,2013-11-25 20:35:00,
2013-11-25 12:44:00,61.7,49.8,30.29,South,183,4.0,4.0,65,0.00,,,0.01,Wunderground v.1.15,2013-11-25 20:44:00,
2013-11-25 12:50:00,61.8,48.0,30.29,SSW,199,4.0,5.0,62,0.00,,,0.01,weatherlink.com 1.10,2013-11-25 20:50:00,
2013-11-25 12:59:00,62.8,47.3,30.29,SSW,211,4.0,6.0,57,0.00,,,0.01,Wunderground v.1.15,2013-11-25 20:59:00,
2013-11-25 13:05:00,63.1,48.1,30.29,SSW,198,5.0,6.0,58,0.00,,,0.01,Wunderground v.1.15,2013-11-25 21:05:00,
2013-11-25 13:15:00,62.8,46.4,30.28,SW,221,4.0,5.0,55,0.00,,,0.01,Wunderground v.1.15,2013-11-25 21:15:00,
2013-11-25 13:21:00,62.7,49.0,30.28,SSW,193,3.0,5.0,61,0.00,,,0.01,weatherlink.com 1.10,2013-11-25 21:21:00,
2013-11-25 13:30:00,63.5,47.5,30.28,South,190,2.0,4.0,56,0.00,,,0.01,Wunderground v.1.15,2013-11-25 21:30:00,
2013-11-25 13:36:00,64.2,47.0,30.27,SSW,196,4.0,4.0,53,0.00,,,0.01,weatherlink.com 1.10,2013-11-25 21:36:00,
2013-11-25 13:44:00,64.6,46.1,30.27,SSE,164,4.0,5.0,51,0.00,,,0.01,Wunderground v.1.15,2013-11-25 21:44:00,
2013-11-25 13:50:00,64.4,49.3,30.27,South,186,4.0,4.0,58,0.00,,,0.01,Wunderground v.1.15,2013-11-25 21:50:00,
2013-11-25 13:55:00,64.0,48.0,30.27,South,187,4.0,4.0,56,0.00,,,0.01,Wunderground v.1.15,2013-11-25 21:55:00,
2013-11-25 14:00:00,63.2,48.2,30.27,SSW,198,4.0,4.0,58,0.00,,,0.01,Wunderground v.1.15,2013-11-25 22:00:00,
2013-11-25 14:05:00,63.5,47.0,30.27,SSW,205,3.0,4.0,56,0.00,,,0.01,weatherlink.com 1.10,2013-11-25 22:05:00,
2013-11-25 14:14:00,63.3,49.2,30.27,SSE,167,3.0,3.0,60,0.00,,,0.01,Wunderground v.1.15,2013-11-25 22:14:00,
2013-11-25 14:19:00,63.2,47.2,30.27,SSE,167,4.0,4.0,56,0.00,,,0.01,Wunderground v.1.15,2013-11-25 22:19:00,
2013-11-25 14:25:00,63.6,47.6,30.27,South,188,4.0,4.0,56,0.00,,,0.01,Wunderground v.1.15,2013-11-25 22:25:00,
2013-11-25 14:34:00,64.5,48.0,30.26,SSW,198,3.0,3.0,55,0.00,,,0.01,Wunderground v.1.15,2013-11-25 22:34:00,
2013-11-25 14:40:00,64.7,48.6,30.26,SSW,205,2.0,2.0,56,0.00,,,0.01,Wunderground v.1.15,2013-11-25 22:40:00,
2013-11-25 14:45:00,64.6,48.1,30.26,West,266,2.0,3.0,55,0.00,,,0.01,Wunderground v.1.15,2013-11-25 22:45:00,
2013-11-25 14:50:00,64.0,48.5,30.26,WNW,300,3.0,7.0,57,0.00,,,0.01,Wunderground v.1.15,2013-11-25 22:50:00,
2013-11-25 15:00:00,63.1,48.5,30.26,WNW,285,5.0,5.0,59,0.00,,,0.01,Wunderground v.1.15,2013-11-25 23:00:00,
2013-11-25 15:05:00,63.2,48.2,30.27,WSW,252,4.0,6.0,58,0.00,,,0.01,Wunderground v.1.15,2013-11-25 23:05:00,
2013-11-25 15:10:00,63.0,48.0,30.27,WNW,285,4.0,5.0,58,0.00,,,0.01,Wunderground v.1.15,2013-11-25 23:10:00,
2013-11-25 15:20:00,62.4,48.3,30.26,WNW,300,4.0,4.0,60,0.00,,,0.01,Wunderground v.1.15,2013-11-25 23:20:00,
2013-11-25 15:30:00,62.4,48.3,30.26,WNW,295,3.0,3.0,60,0.00,,,0.01,Wunderground v.1.15,2013-11-25 23:30:00,
2013-11-25 15:36:00,61.8,48.0,30.26,NW,317,3.0,5.0,61,0.00,,,0.01,weatherlink.com 1.10,2013-11-25 23:36:00,
2013-11-25 15:45:00,60.9,48.2,30.26,NW,308,2.0,3.0,63,0.00,,,0.01,Wunderground v.1.15,2013-11-25 23:45:00,
2013-11-25 15:51:00,61.0,48.0,30.26,NW,326,0.0,2.0,63,0.00,,,0.01,weatherlink.com 1.10,2013-11-25 23:51:00,
2013-11-25 16:00:00,60.9,48.6,30.26,WNW,301,0.0,3.0,64,0.00,,,0.01,Wunderground v.1.15,2013-11-26 00:00:00,
2013-11-25 16:06:00,60.5,48.0,30.26,WNW,301,0.0,3.0,64,0.00,,,0.01,weatherlink.com 1.10,2013-11-26 00:06:00,
2013-11-25 16:15:00,59.8,48.4,30.25,NW,311,0.0,3.0,66,0.00,,,0.01,Wunderground v.1.15,2013-11-26 00:15:00,
2013-11-25 16:20:00,59.5,48.5,30.25,NW,305,0.0,3.0,67,0.00,,,0.01,Wunderground v.1.15,2013-11-26 00:20:00,
2013-11-25 16:25:00,59.0,48.4,30.25,NNE,15,0.0,3.0,68,0.00,,,0.01,Wunderground v.1.15,2013-11-26 00:25:00,
2013-11-25 16:35:00,57.6,47.9,30.25,North,350,0.0,3.0,70,0.00,,,0.01,Wunderground v.1.15,2013-11-26 00:35:00,
2013-11-25 16:44:00,56.4,47.5,30.25,NNW,335,0.0,3.0,72,0.00,,,0.01,Wunderground v.1.15,2013-11-26 00:44:00,
2013-11-25 16:49:00,55.7,47.2,30.25,NNE,23,0.0,3.0,73,0.00,,,0.01,Wunderground v.1.15,2013-11-26 00:49:00,
2013-11-25 16:55:00,55.2,47.1,30.26,NNE,18,0.0,3.0,74,0.00,,,0.01,Wunderground v.1.15,2013-11-26 00:55:00,
2013-11-25 17:00:00,54.6,46.5,30.26,NNE,17,0.0,3.0,74,0.00,,,0.01,Wunderground v.1.15,2013-11-26 01:00:00,
2013-11-25 17:07:00,54.1,47.0,30.26,East,97,0.0,0.0,76,0.00,,,0.01,weatherlink.com 1.10,2013-11-26 01:07:00,
2013-11-25 17:15:00,53.1,45.7,30.26,East,98,0.0,3.0,76,0.00,,,0.01,Wunderground v.1.15,2013-11-26 01:15:00,
2013-11-25 17:22:00,52.1,45.0,30.26,East,97,0.0,0.0,76,0.00,,,0.01,weatherlink.com 1.10,2013-11-26 01:22:00,
2013-11-25 17:30:00,51.0,44.0,30.26,East,96,0.0,3.0,77,0.00,,,0.01,Wunderground v.1.15,2013-11-26 01:30:00,
2013-11-25 17:35:00,51.0,44.7,30.26,SSE,148,0.0,3.0,79,0.00,,,0.01,Wunderground v.1.15,2013-11-26 01:35:00,
2013-11-25 17:45:00,49.8,43.9,30.27,ENE,65,0.0,3.0,80,0.00,,,0.01,Wunderground v.1.15,2013-11-26 01:45:00,
2013-11-25 17:53:00,49.5,44.0,30.27,ENE,65,0.0,0.0,82,0.00,,,0.01,weatherlink.com 1.10,2013-11-26 01:53:00,
2013-11-25 18:00:00,49.1,44.2,30.27,ENE,64,0.0,3.0,83,0.00,,,0.01,Wunderground v.1.15,2013-11-26 02:00:00,
2013-11-25 18:07:00,48.7,44.0,30.27,ENE,57,0.0,0.0,83,0.00,,,0.01,weatherlink.com 1.10,2013-11-26 02:07:00,
2013-11-25 18:15:00,47.6,42.4,30.27,NE,51,0.0,3.0,82,0.00,,,0.01,Wunderground v.1.15,2013-11-26 02:15:00,
2013-11-25 18:22:00,47.3,42.0,30.27,NE,49,0.0,0.0,83,0.00,,,0.01,weatherlink.com 1.10,2013-11-26 02:22:00,
2013-11-25 18:30:00,46.4,41.5,30.27,NE,49,0.0,3.0,83,0.00,,,0.01,Wunderground v.1.15,2013-11-26 02:30:00,
2013-11-25 18:37:00,45.9,41.0,30.27,NE,49,0.0,0.0,84,0.00,,,0.01,weatherlink.com 1.10,2013-11-26 02:37:00,
2013-11-25 18:44:00,45.7,41.4,30.28,NE,49,0.0,3.0,85,0.00,,,0.01,Wunderground v.1.15,2013-11-26 02:44:00,
2013-11-25 18:50:00,45.5,41.3,30.28,NE,49,0.0,3.0,85,0.00,,,0.01,Wunderground v.1.15,2013-11-26 02:50:00,
2013-11-25 19:00:00,45.0,40.8,30.28,NE,49,0.0,3.0,85,0.00,,,0.01,Wunderground v.1.15,2013-11-26 03:00:00,
2013-11-25 19:05:00,45.1,41.5,30.28,NE,49,0.0,3.0,87,0.00,,,0.01,Wunderground v.1.15,2013-11-26 03:05:00,
2013-11-25 19:15:00,44.5,40.9,30.28,NE,49,0.0,3.0,87,0.00,,,0.01,Wunderground v.1.15,2013-11-26 03:15:00,
2013-11-25 19:20:00,44.4,40.8,30.28,NE,49,0.0,3.0,87,0.00,,,0.01,Wunderground v.1.15,2013-11-26 03:20:00,
2013-11-25 19:30:00,44.1,40.5,30.28,NE,49,0.0,3.0,87,0.00,,,0.01,Wunderground v.1.15,2013-11-26 03:30:00,
2013-11-25 19:38:00,44.1,41.0,30.28,NE,49,0.0,0.0,87,0.00,,,0.01,weatherlink.com 1.10,2013-11-26 03:38:00,
2013-11-25 19:45:00,43.9,40.3,30.28,NE,49,0.0,3.0,87,0.00,,,0.01,Wunderground v.1.15,2013-11-26 03:45:00,
2013-11-25 19:50:00,43.9,40.6,30.28,NE,49,0.0,3.0,88,0.00,,,0.01,Wunderground v.1.15,2013-11-26 03:50:00,
2013-11-25 19:59:00,43.7,40.4,30.29,NE,49,0.0,3.0,88,0.00,,,0.01,Wunderground v.1.15,2013-11-26 03:59:00,
2013-11-25 20:05:00,43.5,40.2,30.28,NE,49,0.0,3.0,88,0.00,,,0.01,Wunderground v.1.15,2013-11-26 04:05:00,
2013-11-25 20:15:00,42.9,39.6,30.28,NE,49,0.0,3.0,88,0.00,,,0.01,Wunderground v.1.15,2013-11-26 04:15:00,
2013-11-25 20:20:00,42.9,39.9,30.28,NE,49,0.0,3.0,89,0.00,,,0.01,Wunderground v.1.15,2013-11-26 04:20:00,
2013-11-25 20:29:00,43.1,40.1,30.27,NE,49,0.0,3.0,89,0.00,,,0.01,Wunderground v.1.15,2013-11-26 04:29:00,
2013-11-25 20:35:00,43.1,40.4,30.28,South,173,0.0,3.0,90,0.00,,,0.01,Wunderground v.1.15,2013-11-26 04:35:00,
2013-11-25 20:40:00,43.8,41.3,30.28,SE,129,0.0,3.0,91,0.00,,,0.01,Wunderground v.1.15,2013-11-26 04:40:00,
2013-11-25 20:50:00,44.3,41.6,30.28,East,87,0.0,3.0,90,0.00,,,0.01,Wunderground v.1.15,2013-11-26 04:50:00,
2013-11-25 20:59:00,44.8,42.0,30.28,ESE,117,0.0,3.0,90,0.00,,,0.01,Wunderground v.1.15,2013-11-26 04:59:00,
2013-11-25 21:05:00,44.9,41.9,30.28,East,100,0.0,3.0,89,0.00,,,0.01,Wunderground v.1.15,2013-11-26 05:05:00,
2013-11-25 21:08:00,45.1,42.0,30.28,ESE,105,0.0,1.0,90,0.00,,,0.01,weatherlink.com 1.10,2013-11-26 05:08:00,
2013-11-25 21:09:00,45.3,42.5,30.28,East,96,0.0,3.0,90,0.00,,,0.01,Wunderground v.1.15,2013-11-26 05:09:00,
2013-11-25 21:15:00,45.9,42.8,30.28,East,92,0.0,3.0,89,0.00,,,0.01,Wunderground v.1.15,2013-11-26 05:15:00,
2013-11-25 21:20:00,46.5,43.4,30.28,East,101,0.0,3.0,89,0.00,,,0.01,Wunderground v.1.15,2013-11-26 05:20:00,
2013-11-25 21:24:00,46.8,43.0,30.28,East,98,1.0,2.0,87,0.00,,,0.01,weatherlink.com 1.10,2013-11-26 05:24:00,
2013-11-25 21:29:00,46.8,42.8,30.28,East,98,0.0,3.0,86,0.00,,,0.01,Wunderground v.1.15,2013-11-26 05:29:00,
2013-11-25 21:34:00,46.7,42.4,30.28,ESE,106,0.0,3.0,85,0.00,,,0.01,Wunderground v.1.15,2013-11-26 05:34:00,
2013-11-25 21:40:00,46.5,42.2,30.29,SE,128,0.0,3.0,85,0.00,,,0.01,Wunderground v.1.15,2013-11-26 05:40:00,
2013-11-25 21:49:00,45.3,40.7,30.29,SE,128,0.0,3.0,84,0.00,,,0.01,Wunderground v.1.15,2013-11-26 05:49:00,
2013-11-25 21:55:00,44.9,40.7,30.29,SE,130,0.0,3.0,85,0.00,,,0.01,Wunderground v.1.15,2013-11-26 05:55:00,
2013-11-25 22:05:00,43.8,39.9,30.29,NE,54,0.0,3.0,86,0.00,,,0.01,Wunderground v.1.15,2013-11-26 06:05:00,
2013-11-25 22:15:00,43.3,39.7,30.28,NE,54,0.0,3.0,87,0.00,,,0.01,Wunderground v.1.15,2013-11-26 06:15:00,
2013-11-25 22:24:00,42.9,40.0,30.29,NE,50,0.0,0.0,88,0.00,,,0.01,weatherlink.com 1.10,2013-11-26 06:24:00,
2013-11-25 22:29:00,42.7,39.4,30.29,NE,50,0.0,3.0,88,0.00,,,0.01,Wunderground v.1.15,2013-11-26 06:29:00,
2013-11-25 22:35:00,42.6,39.6,30.29,NE,49,0.0,3.0,89,0.00,,,0.01,Wunderground v.1.15,2013-11-26 06:35:00,
2013-11-25 22:39:00,42.5,39.5,30.29,NE,49,0.0,3.0,89,0.00,,,0.01,Wunderground v.1.15,2013-11-26 06:39:00,
2013-11-25 22:50:00,42.8,40.1,30.29,SE,134,0.0,3.0,90,0.00,,,0.01,Wunderground v.1.15,2013-11-26 06:50:00,
2013-11-25 23:00:00,42.3,39.3,30.29,SE,134,0.0,3.0,89,0.00,,,0.01,Wunderground v.1.15,2013-11-26 07:00:00,
2013-11-25 23:10:00,42.4,39.7,30.29,SE,138,0.0,3.0,90,0.00,,,0.01,Wunderground v.1.15,2013-11-26 07:10:00,
2013-11-25 23:20:00,42.9,40.2,30.29,SE,128,0.0,3.0,90,0.00,,,0.01,Wunderground v.1.15,2013-11-26 07:20:00,
2013-11-25 23:29:00,42.6,39.9,30.29,SE,131,0.0,3.0,90,0.00,,,0.01,Wunderground v.1.15,2013-11-26 07:29:00,
2013-11-25 23:35:00,42.4,39.7,30.30,SE,131,0.0,3.0,90,0.00,,,0.01,Wunderground v.1.15,2013-11-26 07:35:00,
2013-11-25 23:44:00,41.9,39.2,30.30,ESE,108,0.0,3.0,90,0.00,,,0.01,Wunderground v.1.15,2013-11-26 07:44:00,
2013-11-25 23:50:00,42.2,39.5,30.30,ESE,108,0.0,3.0,90,0.00,,,0.01,Wunderground v.1.15,2013-11-26 07:50:00,
2013-11-25 23:55:00,41.9,39.2,30.29,ESE,108,0.0,3.0,90,0.00,,,0.01,Wunderground v.1.15,2013-11-26 07:55:00,